www.pogodaiklimat.ru

Погода и климат >> Архив погоды >> Австралия >> Южная Австралия >> Клив аэропорт


ПОГОДА в Кливе аэропорту

  • Прогноз погоды в Кливе аэропорту
  • Монитор погоды в Кливе аэропорту

АРХИВ ПОГОДЫ в Кливе аэропорту

Время (UTC), дата Ветер
(напр.,м/с)
 
Видим.   Явления Облачность Т
(С)
Тd
(С)
f
(%)
Тe
(С)
Тes
(С)
Комфортность P
(гПа)
Po
(гПа)
Тmin
(С)
Tmax
(С)
R
(мм)
R24
(мм)
S
(см)
22 10.06 С 10 н/о н/о +12.4 +2.6 51 +9 +9 1016.6 995.5
23 10.06 С 10 н/о н/о +14.0 +3.2 48 +11 +11 1016.6 995.5
01 11.06 С 13 н/о н/о +18.6 +4.4 39 +17 +17 1016.8 995.7
02 11.06 С 12 н/о н/о +20.8 +4.8 35 +21 +21 комфорт 1016.2 995.1 +9.1
04 11.06 С 10 н/о н/о +23.8 +5.7 31 +24 +24 комфорт 1014.0 993.0
05 11.06 С 10 н/о н/о +23.6 +4.5 29 +23 +23 комфорт 1013.4 992.4
07 11.06 С 8 н/о н/о +22.7 +4.7 31 +23 +23 комфорт 1013.2 992.2
08 11.06 С 6 н/о н/о +21.0 +4.1 33 +21 +21 комфорт 1013.0 992.0
10 11.06 С 10 н/о н/о +20.8 +4.0 33 +21 +21 комфорт 1012.6 991.6
11 11.06 С 10 н/о н/о +20.2 +3.9 34 +20 +20 1012.7 991.7
13 11.06 С 9 н/о н/о +16.8 +10.2 65 +15 +15 1011.7 990.7
14 11.06 СЗ 4 н/о в посл. час дождь {туман} н/о +15.5 +11.5 77 +15 +15 1011.9 990.9 +24.3
16 11.06 СЗ 10 н/о н/о +16.8 +13.1 79 +15 +15 1011.1 990.1
17 11.06 СЗ 9 н/о туман местами н/о +16.0 +13.7 86 +14 +14 1011.1 990.1 5
19 11.06 СЗ 7 н/о н/о +14.3 +12.3 88 +12 +12 1010.0 989.1
20 11.06 С 9 н/о туман местами н/о +14.4 +12.4 88 +12 +12 1012.0 991.0
22 11.06 СЗ 7 н/о н/о +14.0 +12.6 91 +12 +12 1012.2 991.2
23 11.06 СЗ 7 н/о в посл. час дождь {туман} н/о +14.0 +12.6 91 +12 +12 1013.8 992.8 11
01 12.06 СЗ 7 н/о н/о +15.2 +13.2 88 +13 +13 1014.9 993.9
02 12.06 З 6 н/о в посл. час дождь {туман} н/о +16.3 +12.5 78 +15 +15 1014.6 993.6 +13.9
04 12.06 З 7 н/о н/о +15.2 +10.4 73 +13 +13 1014.7 993.7
05 12.06 З 6 н/о {туман} н/о +15.6 +11.2 75 +14 +14 1014.4 993.4 0.4
07 12.06 З 6 н/о н/о +15.4 +10.0 70 +14 +14 1015.1 994.1
08 12.06 З 4 н/о н/о +14.0 +9.8 76 +13 +13 1016.0 994.9
10 12.06 З 4 н/о н/о +12.4 +10.0 85 +11 +11 1017.8 996.7
11 12.06 З 4 н/о н/о +11.6 +9.9 89 +9 +9 1018.3 997.2
13 12.06 СЗ 4 н/о н/о +11.3 +9.4 88 +9 +9 1018.5 997.4
14 12.06 СЗ 5 н/о н/о +11.6 +9.7 88 +9 +9 1018.1 997.0 +18.1
16 12.06 СЗ 6 н/о н/о +11.0 +9.3 89 +8 +8 1018.1 997.0
17 12.06 СЗ 6 н/о н/о +11.1 +9.2 88 +8 +8 1018.3 997.2
19 12.06 СЗ 6 н/о н/о +10.6 +9.2 91 +7 +7 1018.0 996.9
20 12.06 СЗ 5 н/о н/о +10.6 +9.4 92 +8 +8 1018.5 997.4
22 12.06 СЗ 5 н/о н/о +10.5 +9.4 93 +7 +7 1019.3 998.2
23 12.06 СЗ 5 н/о н/о +11.0 +10.1 94 +8 +8 1019.6 998.5 0.4
01 13.06 З 6 н/о н/о +14.2 +11.0 81 +12 +12 1020.3 999.2
02 13.06 З 7 н/о н/о +14.9 +10.9 77 +13 +13 1020.7 999.5 +10.5
04 13.06 З 7 н/о н/о +15.5 +10.1 70 +14 +14 1018.9 997.8
05 13.06 З 6 н/о н/о +16.2 +9.8 66 +15 +15 1018.6 997.5
07 13.06 СЗ 6 н/о н/о +14.3 +10.9 80 +12 +12 1019.3 998.2
08 13.06 З 4 н/о н/о +13.7 +10.9 83 +12 +12 1019.2 998.1
10 13.06 СЗ 4 н/о н/о +12.4 +9.4 82 +10 +10 1020.7 999.5
11 13.06 СЗ 4 н/о н/о +12.1 +9.1 82 +10 +10 1020.8 999.6
13 13.06 СЗ 5 н/о н/о +11.6 +9.3 86 +9 +9 1020.8 999.6
14 13.06 СЗ 5 н/о н/о +11.5 +9.8 89 +9 +9 1020.8 999.6 +16.6
16 13.06 СЗ 6 н/о н/о +11.5 +9.6 88 +9 +9 1020.2 999.1
17 13.06 СЗ 6 н/о н/о +11.5 +9.9 90 +8 +8 1020.1 999.0
19 13.06 СЗ 6 н/о н/о +11.6 +10.5 93 +9 +9 1019.7 998.6
20 13.06 СЗ 6 н/о н/о +11.7 +10.4 92 +9 +9 1019.7 998.6
22 13.06 СЗ 5 н/о н/о +11.1 +9.4 89 +8 +8 1020.9 999.7
23 13.06 СЗ 6 н/о н/о +11.4 +9.1 86 +8 +8 1021.1 999.9
01 14.06 СЗ 7 н/о н/о +14.6 +9.0 69 +13 +13 1021.6 1000.4
02 14.06 З 7 н/о н/о +15.2 +9.8 70 +13 +13 1021.5 1000.3 +10.9
04 14.06 З 7 н/о н/о +16.2 +8.2 59 +15 +15 1020.3 999.2
05 14.06 З 6 н/о н/о +16.3 +8.5 60 +15 +15 1019.9 998.8
07 14.06 З 5 н/о н/о +15.9 +8.4 61 +15 +15 1020.1 999.0
08 14.06 СЗ 4 н/о н/о +13.8 +8.0 68 +13 +13 1020.3 999.2
10 14.06 СЗ 4 н/о н/о +13.1 +9.2 77 +12 +12 1021.6 1000.4
11 14.06 СЗ 4 н/о туман местами н/о +12.5 +9.5 82 +11 +11 1022.0 1000.8 0.2
13 14.06 СЗ 4 н/о н/о +11.2 +8.9 86 +9 +9 1022.0 1000.8
14 14.06 СЗ 4 н/о {туман} н/о +11.2 +8.9 86 +9 +9 1021.6 1000.4 +16.9
16 14.06 СЗ 3 н/о н/о +10.6 +9.2 91 +8 +8 1021.3 1000.1
17 14.06 СЗ 4 н/о {туман} н/о +11.0 +9.4 90 +8 +8 1021.1 999.9 0.2
19 14.06 СЗ 4 н/о н/о +10.6 +9.4 92 +8 +8 1020.7 999.5
20 14.06 СЗ 4 н/о н/о +10.4 +9.2 92 +8 +8 1020.5 999.4
22 14.06 СЗ 4 н/о н/о +9.1 +7.5 90 +6 +6 1021.2 1000.0
23 14.06 СЗ 5 н/о н/о +11.0 +9.3 89 +8 +8 1021.8 1000.6 0.4
01 15.06 СЗ 5 н/о н/о +14.3 +10.1 76 +13 +13 1022.0 1000.8
02 15.06 СЗ 6 н/о н/о +15.0 +8.5 65 +13 +13 1021.8 1000.6 +9.0
04 15.06 СЗ 7 н/о н/о +15.4 +8.2 62 +14 +14 1020.2 999.1
05 15.06 СЗ 7 н/о н/о +15.6 +7.6 59 +14 +14 1019.5 998.4
07 15.06 СЗ 5 н/о н/о +15.3 +6.3 55 +14 +14 1019.3 998.2
08 15.06 С 4 н/о н/о +14.1 +6.9 62 +13 +13 1019.5 998.4
10 15.06 СЗ 4 н/о н/о +12.6 +6.2 65 +11 +11 1020.0 998.9
11 15.06 СЗ 4 н/о н/о +12.3 +6.1 66 +10 +10 1020.2 999.1
13 15.06 С 5 н/о н/о +11.0 +5.5 69 +9 +9 1020.1 999.0
14 15.06 С 6 н/о н/о +10.2 +5.6 73 +7 +7 1019.8 998.7 +16.4
16 15.06 С 6 н/о н/о +10.9 +5.4 69 +8 +8 1019.0 997.9
17 15.06 С 6 н/о н/о +10.8 +5.1 68 +8 +8 1018.6 997.5
19 15.06 СЗ 5 н/о н/о +9.9 +6.8 81 +7 +7 1019.4 998.3
20 15.06 СЗ 7 н/о н/о +9.8 +7.2 84 +6 +6 1019.3 998.2
22 15.06 С 6 н/о н/о +9.9 +6.4 79 +6 +6 1019.7 998.6
23 15.06 СЗ 7 н/о н/о +11.1 +6.5 73 +8 +8 1020.2 999.1
01 16.06 С 6 н/о н/о +12.8 +8.5 75 +10 +10 1021.4 1000.2
02 16.06 СЗ 5 н/о н/о +13.4 +7.6 68 +11 +11 1021.2 1000.0 +9.6
04 16.06 З 5 н/о н/о +14.5 +7.8 64 +13 +13 1020.8 999.6
05 16.06 СЗ 4 н/о н/о +14.9 +6.7 58 +14 +14 1020.7 999.5
07 16.06 З 2 н/о н/о +15.2 +7.7 61 +15 +15 1021.1 999.9
08 16.06 СЗ 2 н/о н/о +12.7 +7.6 71 +12 +12 1021.6 1000.4
10 16.06 СЗ 3 н/о н/о +12.2 +8.5 78 +11 +11 1022.7 1001.5
11 16.06 З 4 н/о н/о +11.7 +9.6 87 +9 +9 1023.0 1001.8
13 16.06 СЗ 4 н/о н/о +9.9 +8.7 92 +7 +7 1023.2 1002.0
14 16.06 СЗ 4 н/о н/о +9.7 +8.6 93 +7 +7 1023.4 1002.2 +16.0
16 16.06 С 4 н/о н/о +8.5 +7.6 94 +5 +5 1022.7 1001.5
17 16.06 СЗ 4 н/о туман местами н/о +9.8 +8.7 93 +7 +7 1022.6 1001.4 0.2
19 16.06 С 4 н/о н/о +8.7 +7.5 92 +5 +5 1021.9 1000.7
20 16.06 СЗ 3 н/о н/о +8.9 +8.0 94 +6 +6 1021.9 1000.7
22 16.06 СЗ 4 н/о н/о +8.5 +7.1 91 +5 +5 1022.4 1001.2
23 16.06 СЗ 5 н/о н/о +10.4 +8.0 85 +8 +8 1022.6 1001.4 0.2
01 17.06 СЗ 6 н/о н/о +12.8 +8.5 75 +10 +10 1022.9 1001.7
02 17.06 СЗ 7 н/о н/о +13.7 +7.9 68 +11 +11 1022.2 1001.0 +8.4
04 17.06 СЗ 7 н/о н/о +14.6 +4.3 50 +13 +13 1020.5 999.4
05 17.06 СЗ 8 н/о н/о +14.6 +5.7 55 +13 +13 1020.0 998.9
07 17.06 СЗ 7 н/о н/о +13.4 +6.5 63 +11 +11 1019.8 998.7
08 17.06 СЗ 8 н/о н/о +11.1 +8.5 84 +8 +8 1019.9 998.8
10 17.06 СЗ 6 н/о н/о +11.6 +7.5 76 +9 +9 1020.0 998.9
11 17.06 СЗ 7 н/о туман местами н/о +11.4 +8.4 82 +8 +8 1020.5 999.4 0.6
13 17.06 З 4 н/о н/о +10.8 +9.6 92 +8 +8 1021.6 1000.4
14 17.06 З 4 н/о {туман} н/о +10.4 +9.2 92 +8 +8 1022.0 1000.8 +14.9
17 17.06 З 4 н/о {туман} н/о +7.2 +5.5 89 +4 +4 1022.8 1001.6 0.2
19 17.06 З 4 н/о н/о +6.6 +4.3 85 +3 +3 1023.1 1001.9
20 17.06 З 4 н/о н/о +6.2 +4.2 87 +3 +3 1023.5 1002.3
22 17.06 З 4 н/о н/о +6.4 +4.1 85 +3 +3 1024.7 1003.5

 

Местоположение метеостанции Клив аэропорт (Южная Австралия, Австралия): широта -33.72 долгота 136.50 высота над уровнем моря 176 м.

В архиве по умолчанию представлена погода в Кливе аэропорту за последнюю неделю. Архивные данные за месяц целиком и за предыдущие месяцы, начиная с января 2011 года, Вы можете получить, выбрав интересующий диапазон дат из раскрывающегося списка и нажав кнопку "Ввод!".


*Определитесь, кто Вы:
робот инопланетянин человек

Внимание! Время в таблицах - всемирное. Для получения местного времени необходимо прибавить поправку, которая равна 9.5 ч.

Смотрите также архив погоды в соседних городах и на ближайших метеорологических станциях:

Погода в Камминсе (Южная Австралия, Австралия) (93 км)
Погода в Мунте (Южная Австралия, Австралия) (100 км)
Погода в Кадине (Южная Австралия, Австралия) (112 км)
Погода в Порт-Линкольне (Южная Австралия, Австралия) (113 км)
Погода в Уиолле (Южная Австралия, Австралия) (119 км)
Погода в Уудинне (Южная Австралия, Австралия) (123 км)
Погода в Колте (Южная Австралия, Австралия) (127 км)
Погода в Минлатоне (Южная Австралия, Австралия) (148 км)
Погода в Миннипа Пирса (Южная Австралия, Австралия) (158 км)
Погода в Сноутауне (Южная Австралия, Австралия) (159 км)

Пояснения к столбцам:

Ветер - указаны скорость ветра в м/с - средняя за 10 мин, порывы в срок и между сроками (в фигурных скобках) и направление, откуда дует ветер: С - северный, СВ - северо-восточный, В - восточный, ЮВ - юго-восточный, Ю - южный, ЮЗ - юго-западный, З - западный, СЗ - северо-западный.
Видимость - горизонтальная дальность видимости в метрах или километрах. При видимости от 1 до 10 км при отсутствии осадков обычно наблюдается дымка, при ухудшении видимости до 1 км и менее - туман. В сухую погоду видимость может ухудшаться дымом, пылью или мглою.
Явления - указаны атмосферные явления, наблюдавшиеся в срок или в последний час перед сроком; фигурными скобками обозначены явления, наблюдавшиеся между сроками (за 1-3 часа до срока); квадратными скобками обозначены град или гололедные отложения с указанием их диаметра в мм.
Облачность - указаны через наклонную черту общая и нижняя облачность в баллах и высота нижней границы облаков в метрах; квадратными скобками обозначены формы облаков: Ci - перистые, Cs - перисто-слоистые, Cc - перисто-кучевые, Ac - высококучевые, As - высокослоистые, Sc - слоисто-кучевые, Ns - слоисто-дождевые, Cu - кучевые, Cb - кучево-дождевые. Подробнее классификацию облаков см. в Атласе облаков (PDF).
T - Температура воздуха - температура, измеренная на высоте 2 м над землей.
Td - Температура точки росы - температура, при понижении до которой содержащийся в воздухе водяной пар достигнет насыщения.
f - Относительная влажность воздуха - влажноcть воздуха, измеренная на высоте 2 м над землей.
Te - Эффективная температура - температура, которую ощущает одетый по сезону человек в тени. Характеристика душности погоды. При расчете учитывается влияние влажности воздуха и скорости ветра на теплоощущения человека.
Tes - Эффективная температура на солнце - температура, которую ощущает человек, с поправкой на солнечный нагрев. Характеристика знойности погоды. Зависит от высоты солнца над горизонтом, облачности и скорости ветра. Ночью, в пасмурную погоду, а также при ветре 12 м/с и более поправка равна нулю.
P - Атмосферное давление - приведенное к уровню моря атмосферное давление.
Po - Атмосферное давление - измеренное на уровне метеостанции атмосферное давление.
Tmin - Минимальная температура - минимум температуры воздуха на высоте 2 м над землей.
Tmax - Максимальная температура - максимум температуры воздуха на высоте 2 м над землей.
R - Количество осадков - Количество выпавших осадков за период времени, мм. При наведении курсора мыши на число - период времени, за который выпало указанное количество осадков.
R24 - Количество осадков - Количество выпавших осадков за 24 часа, мм.
S - Снежный покров - Высота снежного покрова, см. При наведении курсора мыши на число - состояние снежного покрова и степень покрытия местности в баллах.